Weather History for Jackson, WY

Change the Weather History Date:

Tuesday, January 8, 2013

  Actual Average Record
Temperature  
Mean Temperature 27 °F -  
Max Temperature 30 °F 21 °F 42 °F (1966)
Min Temperature 24 °F -2 °F -39 °F (1979)
Degree Days  
Heating Degree Days 38    
Moisture  
Dew Point 25 °F    
Average Humidity 89    
Maximum Humidity 93    
Minimum Humidity 80    
Precipitation  
Precipitation 0.01 in - - ()
Sea Level Pressure  
Sea Level Pressure 30.08 in    
Wind  
Wind Speed 10 mph (SSW)    
Max Wind Speed 23 mph    
Max Gust Speed 20 mph    
Visibility 8 miles    
Events Snow    
Averages and records for this station are not official NWS values.
T = Trace of Precipitation, MM = Missing Value Source: NWS Daily Summary

Daily Weather History Graph

Daily Weather History Graph

Search for Another Location

Airport:

Trip Planner

Search our weather history database for the weather conditions in past years. The results will help you decide how hot, cold, wet, or windy it might be!

Date:

Astronomy

Jan. 08, 2013 Rise Set
Actual Time 7:55 AM MST 5:04 PM MST
Civil Twilight 7:23 AM MST 5:36 PM MST
Nautical Twilight 6:47 AM MST 6:12 PM MST
Astronomical Twilight 6:13 AM MST 6:46 PM MST
Moon 4:32 AM MST (1/8) 2:09 PM MST (1/8)
Length of Visible Light 10h 13m
Length of Day
9h 08m
Waning Crescent, 13% of the Moon is Illuminated
Jan 8
Waning Crescent
Jan 11
New
Jan 18
First Quarter
Jan 26
Full
Feb 3
Last Quarter

Hourly Weather History & Observations

Time (MST) Temp. Windchill Dew Point Humidity Pressure Visibility Wind Dir Wind Speed Gust Speed Precip Events Conditions
12:15 AM 24.8 °F 15.3 °F 23.0 °F 93% 29.95 in 8.0 mi SSW 9.2 mph - N/A   Overcast
12:35 AM 26.6 °F 19.1 °F 23.0 °F 86% 29.96 in 10.0 mi WSW 6.9 mph - N/A   Overcast
12:55 AM 24.8 °F - 23.0 °F 93% 29.97 in 10.0 mi Calm Calm - N/A   Overcast
1:15 AM 26.6 °F - 23.0 °F 86% 29.97 in 9.0 mi Calm Calm - N/A   Overcast
1:35 AM 26.6 °F 16.2 °F 24.8 °F 93% 29.96 in 5.0 mi South 11.5 mph - N/A   Overcast
1:55 AM 26.6 °F 19.1 °F 24.8 °F 93% 29.96 in 9.0 mi WSW 6.9 mph - N/A   Overcast
2:15 AM 26.6 °F 20.0 °F 24.8 °F 93% 29.97 in 10.0 mi SW 5.8 mph - N/A   Overcast
2:35 AM 26.6 °F 22.6 °F 23.0 °F 86% 29.97 in 10.0 mi West 3.5 mph - N/A   Overcast
2:55 AM 26.6 °F 16.8 °F 24.8 °F 93% 29.98 in 10.0 mi SW 10.4 mph 19.6 mph N/A   Overcast
3:16 AM 26.6 °F 16.2 °F 24.8 °F 93% 29.98 in 10.0 mi SSW 11.5 mph 17.3 mph N/A   Overcast
3:35 AM 28.4 °F 18.0 °F 23.0 °F 80% 29.97 in 10.0 mi South 12.7 mph 17.3 mph N/A   Overcast
3:55 AM 26.6 °F 15.7 °F 23.0 °F 86% 29.98 in 10.0 mi South 12.7 mph - N/A   Overcast
4:15 AM 26.6 °F 18.2 °F 23.0 °F 86% 29.99 in 10.0 mi SSW 8.1 mph - N/A   Overcast
4:35 AM 28.4 °F 18.0 °F 24.8 °F 86% 29.98 in 9.0 mi SSW 12.7 mph 17.3 mph N/A   Overcast
4:55 AM 28.4 °F 19.1 °F 24.8 °F 86% 29.99 in 9.0 mi South 10.4 mph - N/A   Overcast
5:15 AM 28.4 °F 20.4 °F 24.8 °F 86% 29.99 in 10.0 mi South 8.1 mph - N/A   Overcast
5:35 AM 28.4 °F 21.2 °F 24.8 °F 86% 30.00 in 10.0 mi SSW 6.9 mph - N/A   Overcast
5:55 AM 28.4 °F 19.7 °F 24.8 °F 86% 30.00 in 9.0 mi SSW 9.2 mph - N/A   Overcast
6:15 AM 26.6 °F 19.1 °F 24.8 °F 93% 30.01 in 10.0 mi SSW 6.9 mph - N/A   Overcast
6:35 AM 26.6 °F 16.8 °F 24.8 °F 93% 30.01 in 8.0 mi SSW 10.4 mph - N/A   Overcast
6:55 AM 26.6 °F 16.8 °F 24.8 °F 93% 30.01 in 7.0 mi South 10.4 mph - N/A   Overcast
6:56 AM 26.6 °F 16.8 °F 24.8 °F 93% 30.01 in 7.0 mi South 10.4 mph - N/A Snow Light Snow
7:51 AM 28.4 °F 18.0 °F 24.8 °F 86% 30.02 in 8.0 mi South 12.7 mph - N/A Snow Light Snow
8:51 AM 26.6 °F 14.7 °F 24.8 °F 93% 30.06 in 5.0 mi South 15.0 mph - N/A Snow Light Snow
9:59 AM 26.6 °F 14.3 °F 24.8 °F 93% 30.09 in 5.0 mi South 16.1 mph - N/A Snow Light Snow
10:57 AM 26.6 °F 13.4 °F 24.8 °F 93% 30.11 in 3.0 mi South 18.4 mph - N/A Snow Light Snow
11:53 AM 28.4 °F 15.1 °F 24.8 °F 86% 30.09 in 5.0 mi South 20.7 mph - N/A Snow Light Snow
12:51 PM 28.4 °F 14.4 °F 24.8 °F 86% 30.09 in 9.0 mi South 23.0 mph - N/A   Overcast
1:51 PM 28.4 °F 16.2 °F 24.8 °F 86% 30.11 in 4.0 mi South 17.3 mph - N/A Snow Light Snow
2:56 PM 28.4 °F 16.2 °F 24.8 °F 86% 30.12 in 7.0 mi South 17.3 mph - N/A   Overcast
3:59 PM 28.4 °F 16.2 °F 24.8 °F 86% 30.15 in 5.0 mi South 17.3 mph - N/A Snow Light Snow
4:57 PM 28.4 °F 18.0 °F 24.8 °F 86% 30.16 in 7.0 mi South 12.7 mph - N/A   Mostly Cloudy
5:52 PM 28.4 °F 16.2 °F 24.8 °F 86% 30.17 in 7.0 mi South 17.3 mph - N/A   Overcast
6:52 PM 28.4 °F 17.0 °F 26.6 °F 93% 30.17 in 7.0 mi SSE 15.0 mph - N/A   Overcast
7:52 PM 28.4 °F 19.1 °F 26.6 °F 93% 30.20 in 10.0 mi South 10.4 mph - N/A   Overcast
8:51 PM 28.4 °F 19.7 °F 26.6 °F 93% 30.22 in 10.0 mi South 9.2 mph - N/A   Overcast
8:56 PM 28.4 °F 20.4 °F 26.6 °F 93% 30.22 in 10.0 mi South 8.1 mph - N/A   Overcast
9:15 PM 28.4 °F 17.5 °F 26.6 °F 93% 30.22 in 10.0 mi South 13.8 mph - N/A   Overcast
9:35 PM 30.2 °F 19.8 °F 26.6 °F 86% 30.23 in 10.0 mi South 13.8 mph - N/A   Overcast
9:55 PM 30.2 °F 19.8 °F 26.6 °F 86% 30.23 in 10.0 mi South 13.8 mph - N/A   Overcast
10:15 PM 30.2 °F 21.3 °F 26.6 °F 86% 30.24 in 10.0 mi South 10.4 mph - N/A   Overcast
10:55 PM 30.2 °F 18.5 °F 26.6 °F 86% 30.25 in 10.0 mi South 17.3 mph - N/A   Overcast
11:15 PM 30.2 °F 20.2 °F 26.6 °F 86% 30.25 in 10.0 mi South 12.7 mph - N/A   Overcast
11:35 PM 30.2 °F 23.4 °F 26.6 °F 86% 30.26 in 10.0 mi SW 6.9 mph - N/A   Overcast
11:55 PM 30.2 °F 22.6 °F 26.6 °F 86% 30.26 in 10.0 mi West 8.1 mph - N/A   Overcast